This demonstration page uses our WeatherBlox Daily Observations layout. Learn more.

Left ArrowRight Arrow

Hourly Observations for October 17, 2021

Temp ( °F °C ) Dew Point ( °F °C ) Humidity (%) Winds ( mph kmh ) Pressure ( in mb ) Visibility ( mi km ) Precip ( " mm )
12:53 am 00:53 Clear 52 11.1 29 -1.7 41 41 N N/A 29.87 1012 10 16 N/A
1:53 am 01:53 Clear 50 10 29 -1.7 44 44 N N/A 29.86 1011 10 16 N/A
2:53 am 02:53 Clear 49 9.4 30 -1.1 48 48 N N/A 29.85 1011 10 16 N/A
3:53 am 03:53 Clear 48 8.9 30 -1.1 50 50 N N/A 29.83 1010 10 16 N/A
4:53 am 04:53 Clear 45 7.2 28 -2.2 52 52 N N/A 29.81 1010 10 16 N/A
5:53 am 05:53 Clear 44 6.7 30 -1.1 58 58 NNE 3 6 29.81 1009 10 16 N/A
6:53 am 06:53 Clear 44 6.7 32 undefined 63 63 WSW 3 6 29.80 1009 10 16 N/A
7:53 am 07:53 Sunny 45 7.2 34 1.1 66 66 N N/A 29.79 1009 10 16 N/A
8:53 am 08:53 Sunny 51 10.6 35 1.7 54 54 VRB 3 6 29.80 1009 10 16 N/A
9:53 am 09:53 Sunny 58 14.4 33 0.6 39 39 N N/A 29.81 1010 10 16 N/A
10:53 am 10:53 Sunny 63 17.2 32 undefined 31 31 N N/A 29.78 1008 10 16 N/A
11:53 am 11:53 Sunny 65 18.3 34 1.1 32 32 W 6 9 29.77 1008 10 16 N/A
12:53 pm 12:53 Sunny 70 21.1 33 0.6 26 26 SSW 13 20 29.73 1007 10 16 N/A
1:53 pm 13:53 Sunny 73 22.8 32 undefined 22 22 S 17 28 29.67 1005 10 16 N/A
2:53 pm 14:53 Partly Cloudy 73 22.8 31 -0.6 21 21 S 26 43 29.62 1003 8 13 N/A
3:53 pm 15:53 Mostly Sunny 71 21.7 29 -1.7 21 21 SSE 33 54 29.62 1003 9 14 N/A
4:53 pm 16:53 Mostly Cloudy 68 20 33 0.6 27 27 SW 18 30 29.64 1004 10 16 N/A
5:02 pm 17:02 Cloudy 64 17.8 36 2.2 35 35 SW 16 26 29.65 1004 10 16 N/A
5:53 pm 17:53 Cloudy with Light Rain 62 16.7 40 4.4 44 44 W 10 17 29.69 1005 10 16 0.00 0.00
6:53 pm 18:53 Cloudy with Light Rain 54 12.2 47 8.3 77 77 SE 7 11 29.72 1006 7 11 0.07 1.78
7:53 pm 19:53 Cloudy with Light Rain 53 11.7 49 9.4 86 86 E 7 11 29.75 1007 10 16 0.02 0.51
8:53 pm 20:53 Cloudy 52 11.1 50 10 93 93 SE 3 6 29.76 1008 10 16 0.01 0.25
9:53 pm 21:53 Cloudy 52 11.1 49 9.4 89 89 N N/A 29.75 1008 10 16 N/A
10:53 pm 22:53 Cloudy 52 11.1 49 9.4 89 89 N N/A 29.78 1008 10 16 N/A
11:53 pm 23:53 Cloudy 51 10.6 48 8.9 89 89 SE 12 19 29.79 1009 10 16 0.02 0.51

Powered by AerisWeather